Regional Weather Roundup
Issued by NWS

Home | Current Version | Previous Version | Text Only | Print | Product List | Glossary On
Versions: 1 2 3 4 5 6 7 8 9 10 11 12 13 14 15 16 17 18 19 20 21 22 23 24 25 26 27 28 29 30 31 32 33 34 35 36 37 38 39 40 41 42 43 44 45 46 47 48 49 50
000
ASUS45 KTFX 240819
RWRMT
MONTANA HOURLY WEATHER ROUNDUP
NATIONAL WEATHER SERVICE GREAT FALLS MT
119 AM MST MON NOV 24 2014

NOTE: "FAIR" INDICATES FEW OR NO CLOUDS BELOW 12000 FEET WITH NO
SIGNIFICANT WEATHER AND/OR OBSTRUCTIONS TO VISIBILITY.

* THESE STATIONS ARE NOT UNDER NWS QUALITY CONTROL. THEY DO NOT
   REPORT WEATHER SUCH AS PRECIPITATION OR FOG.

MTZ001>007-043-240900-
WEST OF THE DIVIDE
CITY           SKY/WX    TMP DP  RH WIND       PRES   REMARKS
KALISPELL      CLOUDY    34  30  85 S6        30.01R WCI  29
MISSOULA       MOCLDY    32  30  92 VRB5      30.07R WCI  27
BUTTE          CLOUDY    27  21  78 W10       29.95R WCI  18
MULLAN PASS    FOG       25  21  85 VRB7G17   30.03R VSB 1/2  WCI  17
* ESSEX        N/A       31  28  89 N/A        N/A
* EUREKA APT   CLEAR     32  27  82 E6        30.03R WCI  26
* HAMILTON APT MOCLDY    34  27  76 SE15      30.06R WCI  24
* LIBBY APT    PTCLDY    30  28  92 CALM      30.08R
* LINCOLN      N/A       29  27  92 S7G15      N/A   WCI  22
* LOOKOUT PASS N/A       28  27  96 NE5G11     N/A   WCI  22
* POLSON       N/A       27  26  96 SE1        N/A
* RONAN APT    MOCLDY    36  30  79 N/A        N/A
* SEELEY LAKE  N/A       30  28  92 N/A        N/A
* THOMP F APT  PTCLDY    24  18  78 S5G12      N/A   WCI  18
* YAAK HILL    N/A       31  29  92 N/A        N/A
$$

MTZ008-052>055-240900-
SOUTHWEST MONTANA
CITY           SKY/WX    TMP DP  RH WIND       PRES   REMARKS
BOZEMAN        CLOUDY    34  19  54 W12       29.93R WCI  25
DILLON         PTCLDY    28  16  61 S12       29.98R WCI  18
* W YELLOWSTON MOCLDY    22  19  88 SW5G11     N/A   WCI  15
* ENNIS APT    MOCLDY    32  18  56 S3         N/A
* THREE FORKS  CLOUDY    37  18  46 W9         N/A   WCI  30
* BOULDER HILL N/A       29  13  51 N7G18      N/A   WCI  22
* MONIDA PASS  N/A       19  18  96 W9         N/A   WCI   8
* RAYNOLDS PAS N/A       22  13  68 W6         N/A   WCI  14
* WHITEHALL    N/A       33  20  59 SW12G22    N/A   WCI  24
* WISE RIVER   N/A       25  18  75 W7G13      N/A   WCI  17
$$

MTZ009>010-012-014-046-048-049-054-240900-
EAST SLOPES AND CENTRAL MONTANA
CITY           SKY/WX    TMP DP  RH WIND       PRES   REMARKS
CUT BANK       CLOUDY    30  19  64 W16       29.84R WCI  19
GREAT FALLS    CLOUDY    36  23  59 W9        29.85R WCI  29
HELENA         CLOUDY    36  25  64 W13       29.91R WCI  27
MALMSTROM AFB  CLOUDY    37  23  57 NW10      29.87R WCI  30
* CONRAD       MOCLDY    37  23  57 W12        N/A   WCI  29
* DEARBORN     N/A       39  22  51 S6G12      N/A   WCI  35
* EAST GLACIER N/A       30  19  64 W4         N/A
* MONARCH      N/A       30  19  64 W18G27     N/A   WCI  18
* PENDROY      N/A       33  19  56 NW19       N/A   WCI  22
* ROGERS PASS  N/A       27  24  88 SE10G16    N/A   WCI  18
* SAINT MARY   N/A       32  23  69 S8G19      N/A   WCI  25
* SWEET GRASS  N/A       34  17  50 NW22G29    N/A   WCI  22
* WHITE SULPH  N/A       32  19  59 W7G21      N/A   WCI  25
$$

MTZ011-013-016-021-035-040-045-047-050-051-240900-
NORTH CENTRAL MONTANA
CITY           SKY/WX    TMP DP  RH WIND       PRES   REMARKS
HAVRE          MOCLDY    34  25  70 W13       29.77R WCI  25
LEWISTOWN      CLOUDY    37  21  52 W12       29.79R WCI  29
* N BAR RANCH  HAZE      32  27  82 W13G18    29.77S VSB 3    WCI  22
* CHINOOK      PTCLDY    30  25  82 CALM      29.77R
* FORT BENTON  CLOUDY    37  25  62 SW9       29.84R WCI  30
* CHESTER      N/A       30  23  75 W10        N/A   WCI  21
* DENTON       N/A       37  22  55 W17G24     N/A   WCI  27
* GEYSER       N/A       35  20  54 W19G26     N/A   WCI  24
* JUDITH GAP   N/A       36  18  48 NW21G29    N/A   WCI  25
* LOMA         N/A       40  24  53 W13G20     N/A   WCI  32
$$

MTZ017>020-022>027-061-062-240900-
NORTHEAST MONTANA
CITY           SKY/WX    TMP DP  RH WIND       PRES   REMARKS
GLASGOW        CLOUDY    19  16  88 E9        29.79F WCI   8
GLENDIVE       CLEAR      9   5  84 W6        29.81R WCI  -1
JORDAN         CLOUDY    23  21  92 SE5       29.76F WCI  16
SIDNEY         PTCLDY     9   3  76 CALM      29.85R
WOLF POINT     PTCLDY    10   7  88 CALM      29.83F
* BEAVER HILL  N/A       13  11  92 N/A        N/A
* CIRCLE       N/A       14  12  92 N/A        N/A
* LINDSAY DVD  N/A       14  10  84 W9         N/A   WCI   2
* NAVAJO       N/A       14  13  96 NW3        N/A
* PLENTYWOOD A PTCLDY    12   9  88 NW7       29.80S WCI   1
* POPLAR APT   PTCLDY    10   7  88 N/A       29.83S
* SACO         N/A       20  16  84 NE6        N/A   WCI  12
* SCOBEY APT   PTCLDY     5  -2  72 N/A        N/A
$$

MTZ028>042-056>058-240900-
SOUTHCENTRAL AND SOUTHEAST MONTANA
CITY           SKY/WX    TMP DP  RH WIND       PRES   REMARKS
BAKER          CLEAR     16  12  84 W9        29.77S WCI   5
BILLINGS       CLOUDY    39  21  48 W25G31    29.81S WCI  28
LIVINGSTON     CLOUDY    36  19  50 W23       29.87R WCI  24
MILES CITY     CLOUDY    23  21  92 SE3       29.79F
* BIG TIMBER A CLOUDY    36  19  50 W26G36    29.84R WCI  24
* FORSYTH APT  CLOUDY    32  25  75 W8        29.80S WCI  25
* LAUREL APT   CLOUDY    39  19  45 SW18G23    N/A   WCI  30
* ALZADA       N/A       22  18  85 W6         N/A   WCI  14
* HYSHAM       N/A       34  18  52 W12        N/A   WCI  25
* LAME DEER    N/A      N/A N/A N/A N/A        N/A
* REED POINT   N/A       35  26  70 W11G18     N/A   WCI  27
* ROSCOE HILL  N/A       32   6  33 W2G12      N/A
$$

REGIONAL REPORTS...DAKOTAS
CITY           SKY/WX    TMP DP  RH WIND       PRES   REMARKS
WILLISTON      PTCLDY     9   3  76 N7        29.82S WCI  -2
DICKINSON      FAIR      14  10  84 NW13      29.74S
BEACH          CLEAR     10   9  96 NW6       29.78F
CROSBY         CLEAR      3   1  91 NW9       29.82F WCI -11
TIOGA          PTCLDY     7   7 100 NW10G16   29.80F WCI  -7
BISMARCK       CLOUDY    18  12  77 N14G23    29.75R WCI   4
GRAND FORKS    LGT SNOW  14   9  80 N22G33    29.61R WCI  -4
FARGO          LGT SNOW  16  12  84 N20       29.58S VSB 2    WCI  -1
BUFFALO SD     CLEAR     18  12  77 N6        29.69R WCI  10
RAPID CITY     PTCLDY    30  19  64 N17       29.72S WCI  18
$$

REGIONAL REPORTS...WYOMING/IDAHO/WASHINGTON
CITY           SKY/WX    TMP DP  RH WIND       PRES   REMARKS
SHERIDAN       CLOUDY    30  21  69 SW3       29.80F
CODY           CLOUDY    34  18  52 SW10      29.83S WCI  26
YELLOWSTONE LA CLOUDY    19  14  81 VRB3      29.91R
SALMON         CLOUDY    27  25  92 E3        30.09R VSB 1/2
MULLAN PASS    FOG       25  21  85 VRB7G17   30.03S VSB 1/2  WCI  17
SAND POINT     CLOUDY    34  34 100 S5        30.14R WCI  29
SPOKANE        FAIR      30  28  92 SW15      30.16R WCI  19
$$

REGIONAL REPORTS...ALBERTA
CITY           SKY/WX    TMP DP  RH WIND       PRES   REMARKS
CALGARY        PTCLDY    27  16  63 CALM      29.83R
LETHBRIDGE     MOCLDY    30  19  64 W12G17    29.86R WCI  20
MEDICINE HAT   CLOUDY    34  27  76 W9        29.79R WCI  27
EDMONTON       N/A       30  25  82 W12       29.81R WCI  20
WATERTON GATE  N/A       34  19  54 SW14G21    N/A   WCI  24
CARDSTON       N/A       34  19  54 W15G23     N/A   WCI  24
MILK RIVER     N/A       36  19  50 NW20G26    N/A   WCI  25
$$

REGIONAL REPORTS...SASKATCHEWAN
CITY           SKY/WX    TMP DP  RH WIND       PRES   REMARKS
SWIFT CURRENT  MOCLDY    14  12  92 S8        29.77R WCI   3
REGINA         FAIR       7   5  91 NW6       29.84R WCI  -4
VAL MARIE      N/A       19  18  96 CALM       N/A
ASSINIBOIA     N/A        7   5  91 S1         N/A
CORONACH       N/A       10   7  88 W2         N/A

$$




USA.gov is the U.S. government's official web portal to all federal, state and local government web resources and services.